Regional Weather Roundup
Issued by NWS Newport/Morehead, NC

Current Version | Previous Version | Graphics & Text | Print | Product List | Glossary Off
Versions: 1 2 3 4 5 6 7 8 9 10 11 12 13 14 15 16 17 18 19 20 21 22 23 24 25 26 27 28 29 30 31 32 33 34 35 36 37 38 39 40 41 42 43 44 45 46 47 48 49 50

000
ASUS42 KMHX 170426
RWRMHX
WEATHER ROUNDUP FOR EASTERN NORTH CAROLINA
NATIONAL WEATHER SERVICE NEWPORT/MOREHEAD CITY NC
1100 PM EST SAT DEC 16 2017

NOTE: "FAIR" INDICATES FEW OR NO CLOUDS BELOW 12,000 FEET
WITH NO SIGNIFICANT WEATHER AND/OR OBSTRUCTIONS TO VISIBILITY

NCZ015>017-031-032-045>047-102-103-170500-
NORTH COAST

CITY           SKY/WX    TMP DP  RH WIND       PRES   REMARKS
EDENTON        NOT AVBL
ELIZABETH CITY CLEAR     34  30  85 SW7       30.27R
KITTY HAWK     CLEAR     38  31  77 CALM      30.26R
MANTEO         CLEAR     38  32  78 W3        30.28S

$$

NCZ045>047-081-094-103-104-170500-
CENTRAL COAST

CITY           SKY/WX    TMP DP  RH WIND       PRES   REMARKS
FRISCO         CLEAR     35  32  88 W3        30.28R

$$

NCZ095-097-098-100-101-170500-
SOUTHERN COAST

CITY           SKY/WX    TMP DP  RH WIND       PRES   REMARKS
BEAUFORT       CLEAR     38  34  85 CALM      30.29F
CEDAR ISLAND   NOT AVBL
JACKSONVILLE   CLOUDY    35  31  85 SW3       30.30S
PINEY ISLAND     N/A    N/A N/A N/A SW7       30.29R
WILMINGTON     CLOUDY    34  32  92 CALM      30.32R


$$

NCZ011>013-027>030-043-044-078>080-089-090>093-098-170500-
COASTAL PLAIN

CITY           SKY/WX    TMP DP  RH WIND       PRES   REMARKS
AHOSKIE        CLOUDY    29  25  85 CALM      30.27S
CLINTON        CLEAR     32  29  88 CALM      30.32R
ELIZABETHTOWN  NOT AVBL
GOLDSBORO      CLEAR     31  26  82 CALM      30.27S
GREENVILLE     CLOUDY    32  30  93 CALM      30.29R
HAVELOCK       CLOUDY    32  31  96 SW3       30.30S
KENANSVILLE    CLEAR     27  25  93 CALM      30.30R
KINSTON        NOT AVBL
NEW BERN       CLOUDY    29  28  96 CALM      30.30S
RICHLANDS      CLOUDY    29  27  92 SW3       30.30S
ROCKY MOUNT    CLOUDY    32  27  81 S5        30.27S
WASHINGTON     CLOUDY    34  28  78 CALM      30.28F
WHITEVILLE     CLOUDY    36  32  85 CALM      30.31R

$$

AMZ130-135-150-152-154-156-158-170-250-252-270-ANZ085-086-088-633-658-670-170500-
MARINE OBSERVATIONS

STATION/POSITION TIME  TEMP    WIND        PRES    WAVE   SWELL
                       AIR SEA DIR/SP/G            HT/PER HT/PER
                 (UTC) (F)     (DEG/KT/KT) (MB)    (FT/S) (FT/S)
CHESAPEAKE LIGHT NOT AVBL
64 E VA BEACH    0350   50 59  280/ 16/ 19 1024.4    4/ 5
DUCK             0400   42 52  240/  8/ 10 1024.4
2 E DUCK         0400      54                N/A     1/10
OREGON INLET     0400   43 47  230/  7/  9 1025.1
13E OREGON INLT  0348      58                N/A     2/ 7   2/ 7
HATTERAS CG      0400   45 52  270/  7/  9 1025.1
DIAMOND BUOY     0410   53 72  290/ 12/ 16 1025.6
CAPE LOOKOUT     0400          280/  7/  8 1025.9
BEAUFORT LAB     0400   44 50  280/  2/  4 1025.6
30 SE NEW RVR IN 0408   52 63  270/  8/ 12 1026.2
30 SE NEW RVR IN 0400      63                N/A     2/11
27 SE WRIGHTSVLE 0408   52 63  270/  8/ 14 1026.4
5 SE WRIGHTSVLE  0408   49 56  270/  8/ 10 1026.0
225 S CAPE HAT   0350   62 74  340/  4/  8 1025.8    4/ 6   5/ 6
41 SE CHARLESTON 0410   59 72  230/  4/  8 1025.6

$$




USA.gov is the U.S. government's official web portal to all federal, state and local government web resources and services.